Location: *
(49.9853°N, 3.5569°E)
Time: 12:19:20
(UTC+00:00)

ADEOS Rocket - Pass Details

Date: 22 September 2019
Orbit: 859 x 1306 km, 98.7° (Epoch: 15 October)

Event Time Altitude Azimuth Distance (km) Brightness Sun altitude
Rises 18:42:43 0° 20° (NNE) 4,107 6.2 -10.1°
Reaches altitude 10° 18:45:39 10° 30° (NNE) 3,194 5.5 -10.5°
Maximum altitude 18:52:16 34° 92° (E) 1,998 4.1 -11.6°
Drops below altitude 10° 18:59:06 10° 154° (SSE) 3,316 5.4 -12.6°
Sets 19:02:10 0° 164° (SSE) 4,284 6.0 -13.1°
